Pompano Beach, FL

3:34 AM EDT on August 28, 2016 (GMT -0400)
Pompano Beach

Weather History for KPMP - April, 2013

Change the Weather History Date:

Wednesday, April 3, 2013

  Actual Average Record
Temperature  
Mean Temperature 78 °F -  
Max Temperature 82 °F 84 °F 95 °F (1975)
Min Temperature 73 °F 65 °F 50 °F (1985)
Cooling Degree Days 12    
Growing Degree Days 28 (Base 50)    
Moisture  
Dew Point 68 °F    
Average Humidity 76    
Maximum Humidity 87    
Minimum Humidity 60    
Precipitation  
Precipitation 0.00 in - - ()
Sea Level Pressure  
Sea Level Pressure 30.05 in    
Wind  
Wind Speed 10 mph (ESE)    
Max Wind Speed 17 mph    
Max Gust Speed 24 mph    
Visibility 10 miles    
Events      
Averages and records for this station are not official NWS values.
T = Trace of Precipitation, MM = Missing Value Source: NWS Daily Summary

Daily Weather History Graph

Daily Weather History Graph

Search for Another Location

Airport or City:

Trip Planner

Search our weather history database for the weather conditions in past years. The results will help you decide how hot, cold, wet, or windy it might be!

Date:

Astronomy

Apr. 03, 2013 Rise Set
Actual Time 7:09 AM EDT 7:38 PM EDT
Civil Twilight 6:45 AM EDT 8:01 PM EDT
Nautical Twilight 6:18 AM EDT 8:29 PM EDT
Astronomical Twilight 5:51 AM EDT 8:56 PM EDT
Moon 2:12 AM EDT (4/3) 1:23 PM EDT (4/3)
Length of Visible Light 13h 15m
Length of Day
12h 29m
Last Quarter, 45% of the Moon is Illuminated
Apr 3
Last Quarter
Apr 10
New
Apr 18
First Quarter
Apr 25
Full
May 2
Last Quarter

Hourly Weather History & Observations

Time (EDT) Temp. Heat Index Dew Point Humidity Pressure Visibility Wind Dir Wind Speed Gust Speed Precip Events Conditions
12:53 AM 73.0 °F - 66.9 °F 81% 30.08 in 10.0 mi East 5.8 mph - N/A   Clear
1:53 AM 73.0 °F - 68.0 °F 84% 30.07 in 10.0 mi East 5.8 mph - N/A   Clear
2:53 AM 73.0 °F - 66.9 °F 81% 30.06 in 10.0 mi East 5.8 mph - N/A   Clear
3:53 AM 73.0 °F - 66.9 °F 81% 30.04 in 10.0 mi East 8.1 mph - N/A   Partly Cloudy
4:53 AM 73.0 °F - 68.0 °F 84% 30.04 in 10.0 mi ESE 8.1 mph - N/A   Scattered Clouds
5:53 AM 73.0 °F - 66.0 °F 79% 30.04 in 10.0 mi SE 9.2 mph - N/A   Clear
6:53 AM 73.9 °F - 68.0 °F 82% 30.04 in 10.0 mi SE 11.5 mph - N/A   Clear
7:53 AM 75.0 °F - 68.0 °F 79% 30.05 in 10.0 mi ESE 12.7 mph - N/A   Partly Cloudy
8:53 AM 75.9 °F - 66.9 °F 74% 30.06 in 10.0 mi SE 13.8 mph - N/A   Clear
9:53 AM 78.1 °F - 68.0 °F 71% 30.07 in 10.0 mi SE 13.8 mph - N/A   Clear
10:53 AM 80.1 °F 82.7 °F 68.0 °F 67% 30.08 in 10.0 mi ESE 13.8 mph - N/A   Clear
11:53 AM 80.1 °F 82.7 °F 68.0 °F 67% 30.06 in 10.0 mi SE 15.0 mph - N/A   Clear
12:53 PM 81.0 °F 83.8 °F 68.0 °F 65% 30.05 in 10.0 mi SE 16.1 mph 24.2 mph N/A   Clear
1:53 PM 81.0 °F 83.8 °F 68.0 °F 65% 30.05 in 10.0 mi ESE 13.8 mph 19.6 mph N/A   Scattered Clouds
2:53 PM 82.0 °F 84.5 °F 66.9 °F 60% 30.02 in 10.0 mi SE 15.0 mph - N/A   Clear
3:53 PM 80.1 °F 82.7 °F 68.0 °F 67% 30.01 in 10.0 mi SE 17.3 mph - N/A   Clear
4:53 PM 81.0 °F 83.8 °F 68.0 °F 65% 30.01 in 10.0 mi SE 11.5 mph - N/A   Scattered Clouds
5:53 PM 79.0 °F - 66.9 °F 66% 30.01 in 10.0 mi ESE 11.5 mph - N/A   Scattered Clouds
6:53 PM 77.0 °F - 68.0 °F 74% 30.03 in 10.0 mi ESE 8.1 mph - N/A   Scattered Clouds
7:53 PM 75.9 °F - 69.1 °F 79% 30.03 in 10.0 mi ESE 9.2 mph - N/A   Partly Cloudy
8:53 PM 75.9 °F - 71.1 °F 85% 30.04 in 10.0 mi ESE 9.2 mph - N/A   Scattered Clouds
9:53 PM 75.0 °F - 70.0 °F 84% 30.05 in 10.0 mi SE 11.5 mph - N/A   Partly Cloudy
10:53 PM 75.0 °F - 71.1 °F 87% 30.05 in 10.0 mi ESE 13.8 mph - N/A   Clear
11:53 PM 75.0 °F - 71.1 °F 87% 30.06 in 10.0 mi SE 10.4 mph - N/A   Clear